BADR-7 (ARABSAT-6B)

Last updated on Sun Apr 12 2026 00:02:54 GMT+0000 (Coordinated Universal Time)

1 41029U 15065B 26101.31193617 .00000146 00000+0 00000+0 0 9993 2 41029 0.0386 236.3394 0002403 6.7670 94.7258 1.00270364 38098
UTC large
Height (km)
Speed (km/s)
/
Latitude / Longitude
Inclination (degrees)
Orbital Period (minutes)
Azimuth
Elevation
Range (km)
Doppler Factor

Next 0 passes for location: London (51.5072 / 0.1276)

Sorry there are no passes over London.
BADR-7 (ARABSAT-6B)